Location: Unspecified
(51.5204°N, 0.0000°E)
Time: 08:12:23
(UTC+00:00)

N. Korean satellite - Visible Passes

Search period start: 18 November 2019 00:00
Search period end: 28 November 2019 00:00
Orbit: 456 x 506 km, 97.2° (Epoch: 17 November)

Date Brightness Start Highest point End Pass type
(mag) Time Alt. Az. Time Alt. Az. Time Alt. Az.
18 Nov 9.7 05:00:28 10° NE 05:03:02 18° E 05:05:35 10° SE visible
18 Nov 6.9 06:33:05 10° N 06:36:41 46° WNW 06:40:14 10° SW visible
18 Nov 7.5 17:13:14 10° S 17:16:50 54° W 17:20:29 10° NNW visible
19 Nov 6.6 06:07:36 10° NNE 06:11:21 88° WNW 06:15:02 10° SSW visible
19 Nov 6.6 16:47:46 10° SSE 16:51:25 78° ENE 16:55:09 10° N visible
19 Nov 10.3 18:24:17 10° WSW 18:25:21 11° W 18:26:24 10° WNW visible
20 Nov 7.7 05:42:18 10° NNE 05:45:55 48° E 05:49:29 10° S visible
20 Nov 9.6 17:56:56 10° SW 17:59:41 20° W 18:02:27 10° NW visible
21 Nov 9.0 05:17:14 10° NE 05:20:24 26° E 05:23:31 10° SSE visible
21 Nov 8.4 17:30:43 10° SSW 17:34:06 35° W 17:37:34 10° NNW visible
22 Nov 9.9 04:52:39 10° NE 04:54:47 15° E 04:56:54 10° SE visible
22 Nov 6.7 06:24:53 10° N 06:28:32 56° WNW 06:32:08 10° SSW visible
22 Nov 7.1 17:04:58 10° S 17:08:38 68° WSW 17:12:21 10° NNW visible
23 Nov 6.8 05:59:26 10° NNE 06:03:10 76° ESE 06:06:49 10° S visible
23 Nov 6.6 16:39:35 10° SSE 16:43:15 63° ENE 16:46:57 10° N visible
23 Nov 10.0 18:15:11 10° WSW 18:17:03 13° W 18:18:56 10° WNW visible
24 Nov 8.1 05:34:12 10° NNE 05:37:42 39° E 05:41:08 10° SSE visible
24 Nov 9.2 17:48:23 10° SSW 17:51:25 24° W 17:54:29 10° NW visible
25 Nov 9.3 05:09:14 10° NE 05:12:08 21° E 05:14:59 10° SE visible
25 Nov 7.2 06:42:13 10° N 06:45:39 36° WNW 06:49:02 10° SW visible
25 Nov 8.0 17:22:20 10° S 17:25:52 43° W 17:29:27 10° NNW visible
26 Nov 10.1 04:44:59 10° ENE 04:46:28 12° E 04:47:56 10° ESE visible
26 Nov 6.5 06:16:39 10° N 06:20:20 69° WNW 06:23:57 10° SSW visible
26 Nov 6.7 16:56:43 10° SSE 17:00:24 83° WSW 17:04:09 10° NNW visible
27 Nov 7.2 05:51:16 10° NNE 05:54:55 61° E 05:58:30 10° S visible
27 Nov 6.8 16:31:26 10° SSE 16:35:02 51° ENE 16:38:41 10° N visible
27 Nov 9.9 18:06:22 10° SW 18:08:44 16° W 18:11:07 10° NW visible
